{"data":{"norad_id":67291,"epoch":"2026-09-18T10:31:45.146208Z","epoch_age_seconds":281156,"freshness":"STALE","line1":"1 67291U 25313AV  26261.43871697  .00010335  00000+0  37511-3 0  9992","line2":"2 67291  97.3844 335.7841 0008824  33.4783 326.7013 15.28472222 40228","mean_motion":15.28472222,"eccentricity":0.0008824,"inclination_deg":97.3844,"raan_deg":335.7841,"arg_perigee_deg":33.4783,"mean_anomaly_deg":326.7013,"bstar":0.00037511,"rev_number":4022,"period_min":94.211721958268,"perigee_km":474.3268077763,"apogee_km":486.43071639323,"semimajor_km":6858.5157620848,"source":"CELESTRAK","updated_at":"2026-09-21T09:00:16.550137Z"}}